{"data":{"norad_id":41179,"epoch":"2026-06-13T06:43:33.452256Z","epoch_age_seconds":8586957,"freshness":"OLD","line1":"1 41179U 15081A   26164.28024829  .00000433  00000+0  12794-3 0  9996","line2":"2 41179  47.0060  20.4759 0002252 192.2086 167.8745 14.58854678557187","mean_motion":14.58854678,"eccentricity":0.0002252,"inclination_deg":47.006,"raan_deg":20.4759,"arg_perigee_deg":192.2086,"mean_anomaly_deg":167.8745,"bstar":0.00012794,"rev_number":55718,"period_min":98.707569829652,"perigee_km":695.28125593006,"apogee_km":698.46784113152,"semimajor_km":7075.0115485308,"source":"CELESTRAK","updated_at":"2026-06-14T09:01:16.357774Z"}}